Location: Moscow
(55.7500°N, 37.5830°E)
Time: 07:54:15
(UTC+03:00)

ISS - Visible Passes

Search period start: 18 May 2021 00:00
Search period end: 28 May 2021 00:00
Orbit: 417 x 422 km, 51.6° (Epoch: 18 May)

Date Brightness Start Highest point End Pass type
(mag) Time Alt. Az. Time Alt. Az. Time Alt. Az.
18 May -3.1 00:46:38 10° W 00:49:42 33° SSW 00:50:00 32° S visible
18 May -3.2 22:22:45 10° WSW 22:25:54 37° S 22:29:03 10° ESE visible
18 May -3.2 23:59:11 10° WSW 00:02:20 37° S 00:03:32 27° SE visible
19 May -1.4 01:36:13 10° WSW 01:36:27 11° WSW 01:36:27 11° WSW visible
19 May -3.0 21:35:29 10° SW 21:38:32 32° SSE 21:41:37 10° E visible
19 May -3.3 23:11:47 10° WSW 23:14:58 40° S 23:17:21 16° ESE visible
20 May -2.1 00:48:35 10° WSW 00:50:17 19° SW 00:50:17 19° SW visible
20 May -3.3 22:24:23 10° WSW 22:27:35 41° S 22:30:48 10° ESE visible
21 May -2.8 00:01:02 10° W 00:03:59 27° SSW 00:04:10 27° SSW visible
21 May -3.2 21:37:01 10° WSW 21:40:12 40° S 21:43:23 10° ESE visible
21 May -3.0 23:13:34 10° W 23:16:38 32° SSW 23:18:07 22° SSE visible
22 May -1.3 00:51:01 10° WSW 00:51:03 10° WSW 00:51:03 10° WSW visible
22 May -3.1 22:26:07 10° WSW 22:29:16 37° S 22:32:06 12° ESE visible
23 May -2.0 00:03:09 10° WSW 00:05:02 17° SW 00:05:02 17° SW visible
23 May -3.2 21:38:41 10° WSW 21:41:53 40° S 21:45:04 10° ESE visible
23 May -2.4 23:15:30 10° WSW 23:18:12 22° SSW 23:19:02 20° S visible
24 May -2.6 22:27:57 10° W 22:30:52 27° SSW 22:33:05 14° SSE visible
25 May -1.7 23:17:55 10° WSW 23:19:38 13° SW 23:20:04 13° SSW visible
26 May -1.9 22:30:02 10° WSW 22:32:22 18° SSW 22:34:09 12° S visible
